TimeCDT,TemperatureF,Dew PointF,Humidity,Sea Level PressureIn,VisibilityMPH,Wind Direction,Wind SpeedMPH,Gust SpeedMPH,PrecipitationIn,Events,Conditions,WindDirDegrees,DateUTC
12:52 AM,73.9,63.0,68,29.93,-9999.0,SE,5.8,-,N/A,,Unknown,140,2013-07-07 05:52:00
1:52 AM,73.9,62.1,66,29.92,-9999.0,SSE,4.6,-,N/A,,Unknown,160,2013-07-07 06:52:00
2:52 AM,72.0,63.0,73,29.91,-9999.0,SSE,4.6,-,N/A,,Unknown,160,2013-07-07 07:52:00
3:52 AM,71.1,64.0,78,29.92,-9999.0,Calm,Calm,-,N/A,,Unknown,0,2013-07-07 08:52:00
4:52 AM,72.0,64.0,76,29.93,-9999.0,South,6.9,-,N/A,,Unknown,190,2013-07-07 09:52:00
5:52 AM,72.0,64.0,76,29.94,-9999.0,Calm,Calm,-,N/A,,Unknown,0,2013-07-07 10:52:00
6:52 AM,72.0,64.9,78,29.95,-9999.0,Calm,Calm,-,N/A,,Unknown,0,2013-07-07 11:52:00
7:52 AM,72.0,64.9,78,29.94,-9999.0,SSW,6.9,-,N/A,,Unknown,200,2013-07-07 12:52:00
8:52 AM,73.9,66.0,76,29.94,-9999.0,South,8.1,-,N/A,,Unknown,190,2013-07-07 13:52:00
9:52 AM,78.1,66.9,68,29.94,-9999.0,South,5.8,-,N/A,,Unknown,180,2013-07-07 14:52:00
10:52 AM,79.0,66.9,66,29.94,-9999.0,South,8.1,-,N/A,,Unknown,190,2013-07-07 15:52:00
11:52 AM,84.0,66.9,56,29.94,-9999.0,South,8.1,18.4,N/A,,Unknown,190,2013-07-07 16:52:00
12:52 PM,86.0,66.9,53,29.93,-9999.0,SSW,10.4,-,N/A,,Unknown,210,2013-07-07 17:52:00
1:52 PM,89.1,68.0,50,29.91,-9999.0,South,12.7,20.7,N/A,,Unknown,190,2013-07-07 18:52:00
2:52 PM,89.1,66.9,48,29.91,-9999.0,SSW,11.5,-,N/A,,Unknown,200,2013-07-07 19:52:00
3:52 PM,89.1,68.0,50,29.91,-9999.0,South,9.2,20.7,N/A,,Unknown,180,2013-07-07 20:52:00
4:52 PM,89.1,69.1,52,29.90,-9999.0,South,11.5,19.6,N/A,,Unknown,170,2013-07-07 21:52:00
5:52 PM,89.1,68.0,50,29.89,-9999.0,South,12.7,-,N/A,,Unknown,180,2013-07-07 22:52:00
6:52 PM,88.0,68.0,51,29.90,-9999.0,South,9.2,-,N/A,,Unknown,180,2013-07-07 23:52:00
7:52 PM,86.0,66.0,51,29.90,-9999.0,South,8.1,-,N/A,,Unknown,170,2013-07-08 00:52:00
8:52 PM,84.0,66.0,55,29.90,-9999.0,South,8.1,-,N/A,,Unknown,180,2013-07-08 01:52:00
9:52 PM,84.0,63.0,49,29.92,-9999.0,South,6.9,-,N/A,,Unknown,180,2013-07-08 02:52:00
10:52 PM,82.9,63.0,51,29.93,-9999.0,South,5.8,-,N/A,,Unknown,180,2013-07-08 03:52:00
11:52 PM,82.0,64.0,54,29.94,-9999.0,South,6.9,-,N/A,,Unknown,190,2013-07-08 04:52:00